STARLINK-31870, 59787

Orbit data source: Space-Track

STARLINK-31870, 59787 is a payload satellite owned by SpaceX/Seattle (US) in LEO that was launched on Sat, 18 May 2024 UTC via an FALCON 9 launch vehicle from the Air Force Eastern Test Range (AFETR). Payload-class satellites include a variety of spacecraft equipped with specific instruments for various scientific and technological missions. These include communications satellites like Starlink; space stations such as the ISS; scientific satellites like the Hubble; Earth observation satellites from companies like Planet Labs, Umbra, and HawkEye 360; GPS; miniature CubeSats for education and research; and military/defense satellites.

Loading next visibility...
Identifier
59787, 2024-093F
Orbit
LEO
Country
Flag of USUS
Related business
Manufacturer
SpaceX/Seattle
Mission
Operational spacecraft
Bus & Motor
STARLINK V2M, Unknown motor
Mass
730 kg wet, ~700 kg dry
Launch date (UTC)
2024-05-18 (1 year ago)
Launch vehicle
FALCON 9
Launch site
Air Force Eastern Test Range (AFETR)
Object type
Payload
Rocket body
Debris
Shape & HBR
Unknown
Radar Cross Section
Large (>1 m²)

Expand to show TLE details & history
Last TLE update: 20 hours ago

TLE from 20 hours ago
0 STARLINK-31870
1 59787U 24093F   25258.02089435 -.00001371  00000-0 -40291-4 0  9991
2 59787  43.0034 120.5944 0001695 266.1170  93.9488 15.27581643 75837
Epoch: 2025-09-15T00:30Z
TLE epoch observation values (Epoch: 2025-09-15T00:30:05.271Z)
Latitude
-0.00003°
Longitude
118.84087°
Altitude
482.9 km
Speed
7.626 km/s
True Right ascension
08h 02m 22s
True Declination
0° 00' 00"
Sunlit
Object was in daylight at epoch
Visualization orbit readout
Latitude
Unknown
Longitude
Unknown
Altitude
Unknown
Speed
Unknown
Apparent Right ascension
Unknown
Apparent Declination
Unknown
Sunlit
N/A
Visualization observer readout
Local Sidereal Time
12:54:39
Azimuth
Unknown
Elevation
Unknown
Doppler factor
Unknown
Orbital elements
Apogee altitude
486.152 km
Perigee altitude
483.825 km
Semi-major axis
6,863.126 km
Eccentricity
0.00017
Inclination
43.0034°
RAAN
120.5944°
Arg. of periapsis
266.117°
True anomaly
93.96818°
Mean anomaly
93.9488°
Eccentric anomaly
93.95849°
Mean motion
3.81733 °/min
Orbital period
94.31 mins
BSTAR
-0.000040291
Loading maneuver chart data...
Computing Atmospheric mass density...
Loading historical data...
Loading historical data...
Loading historical data...
Loading historical data...
Loading historical data...
Loading historical data...
Loading historical data...

Documentation

Showing up to 5 results
|